Regional Weather Roundup
Issued by NWS

Home | Current Version | Previous Version | Text Only | Print | Product List | Glossary On
Versions: 1 2 3 4 5 6 7 8 9 10 11 12 13 14 15 16 17 18 19 20 21 22 23 24 25 26 27 28 29 30 31 32 33 34 35 36 37 38 39 40 41 42 43 44 45 46 47 48 49 50
857
ASUS44 KOUN 101600
RWROK

WEATHER ROUNDUP FOR OKLAHOMA
NATIONAL WEATHER SERVICE NORMAN OK
1000 AM CST SAT DEC 10 2016

NOTE: "FAIR" INDICATES FEW OR NO CLOUDS BELOW 12,000 FEET WITH NO
      SIGNIFICANT WEATHER AND/OR OBSTRUCTIONS TO VISIBILITY.

OKZ001>007-009>012-014-015-017-101700-
NORTHWEST OKLAHOMA AND THE PANHANDLE

CITY           SKY/WX    TMP DP  RH WIND       PRES   REMARKS
GAGE           CLOUDY    33  23  66 S17G24    30.17F WCI  22
GUYMON         CLOUDY    29  26  89 S12       30.04F WCI  19
ENID/WOODRING  PTSUNNY   39  23  52 S16       30.30F WCI  30
$$

OKZ016-021>023-033>039-044-045-101700-
SOUTHWEST OKLAHOMA

CITY           SKY/WX    TMP DP  RH WIND       PRES   REMARKS
LAWTON/REGL    CLOUDY    41  22  46 S20G28    30.32F
LAWTON/FT SILL CLOUDY    40  24  51 S21G28    30.30F WCI  31
FREDERICK      CLOUDY    39  26  59 S20       30.28F WCI  29
CLINTON        CLOUDY    36  24  62 S22G30    30.24S WCI  25
HOBART         SUNNY     38  25  59 S28G33    30.28S WCI  26
$$

OKZ018>020-024>031-101700-
CENTRAL OKLAHOMA

CITY           SKY/WX    TMP DP  RH WIND       PRES   REMARKS
OKLAHOMA CITY  CLOUDY    37  22  54 S22G32    30.31F WCI  26
OKC/WILEY POST CLOUDY    39  22  50 S18G30    30.31F WCI  30
OKC/TINKER AFB MIX PCPN  38  22  52 S20       30.31F WCI  28
STILLWATER     CLOUDY    38  20  48 S13G23    30.34F WCI  30
GUTHRIE        CLOUDY    39  21  48 S14G22    30.33F WCI  31
$$

OKZ008-013-054>072-101700-
NORTHEAST OKLAHOMA

CITY           SKY/WX    TMP DP  RH WIND       PRES   REMARKS
TULSA          CLOUDY    39  21  48 S12G21    30.40F WCI  32
TULSA/JONES    CLOUDY    40  19  43 S14       30.41F WCI  32
PONCA CITY     CLOUDY    38  21  50 S15G21    30.32F WCI  29
BARTLESVILLE   CLOUDY    38  20  48 S8        30.41S WCI  32
MUSKOGEE       CLOUDY    38  23  55 SE13      30.44F WCI  30
$$

OKZ032-040>043-046>053-073>077-101700-
SOUTH CENTRAL/SOUTHEAST OKLAHOMA

CITY           SKY/WX    TMP DP  RH WIND       PRES   REMARKS
MCALESTER      CLOUDY    40  20  44 S10G17    30.44S WCI  33
$$





USA.gov is the U.S. government's official web portal to all federal, state and local government web resources and services.